ARIANE 5 DEB (SYLDA), 26722

Orbit data source: Space-Track

ARIANE 5 DEB (SYLDA), 26722 is space debris in HEO originally from a launch on Thu, 08 Mar 2001 UTC launched from the French Guiana (FRGUI). Debris objects in space refer to the collection of defunct objects orbiting the Earth. Examples of debris include non-operational satellites, rocket bodies, and fragments generated from explosions, collisions, or faulty payload assembly.

Loading next visibility...
Identifier
26722, 2001-011D
Orbit
HEO
Country
Flag of FRFR
Related business
Manufacturer
Astrium
Mission
Spacecraft
Bus & Motor
SYLDA 5, Unknown motor
Mass
440 kg wet, 440 kg dry
Launch date (UTC)
2001-03-08 (25 years ago)
Launch vehicle
Unknown
Launch site
French Guiana (FRGUI)
Object type
Payload
Rocket body
Debris
Shape & HBR
Cyl, 2.5 m
Radar Cross Section
25.270 m², Large (>1 m²)

Expand to show TLE details & history
Last TLE update: 13 hours ago

TLE from 13 hours ago
0 ARIANE 5 DEB (SYLDA)
1 26722U 01011D   26124.77881678 -.00000000  00000-0  51939-2 0  9999
2 26722   2.3850 330.8029 7082185 116.9891 328.8846  2.22968556204943
Epoch: 2026-05-04T18:41Z
TLE epoch observation values (Epoch: 2026-05-04T18:41:29.769Z)
Latitude
0.00001°
Longitude
-173.08059°
Altitude
12,015.95 km
Speed
5.218 km/s
True Right ascension
21h 59m 49s
True Declination
0° 00' 00"
Sunlit
Object was in daylight at epoch
Visualization orbit readout
Latitude
Unknown
Longitude
Unknown
Altitude
Unknown
Speed
Unknown
Apparent Right ascension
Unknown
Apparent Declination
Unknown
Sunlit
N/A
Visualization observer readout
Local Sidereal Time
15:46:40
Azimuth
Unknown
Elevation
Unknown
Doppler factor
Unknown
Orbital elements
Apogee altitude
35,908.676 km
Perigee altitude
844.891 km
Semi-major axis
24,754.921 km
Eccentricity
0.70822
Inclination
2.385°
RAAN
330.8029°
Arg. of periapsis
116.9891°
True anomaly
242.043°
Mean anomaly
328.8846°
Eccentric anomaly
291.00246°
Mean motion
0.55725 °/min
Orbital period
646.03 mins
BSTAR
0.0051939
Loading maneuver chart data...
Computing Atmospheric mass density...
Loading historical data...
Loading historical data...
Loading historical data...
Loading historical data...
Loading historical data...
Loading historical data...
Loading historical data...
Other satellites on launch #11 in the year 2001 (2001-03-08 UTC)

Documentation

Showing up to 5 results
|